Regional Weather Roundup
Issued by NWS Grand Forks, ND

Home | Current Version | Previous Version | Graphics & Text | Print | Product List | Glossary On
Versions: 1 2 3 4 5 6 7 8 9 10 11 12 13 14 15 16 17 18 19 20 21 22 23 24 25 26 27 28 29 30 31 32 33 34 35 36 37 38 39 40 41 42 43 44 45 46 47 48 49 50
000
ASUS43 KFGF 210931
RWRFGF
PRAIRIE TO PINES  WEATHER ROUNDUP
NATIONAL WEATHER SERVICE EASTERN NORTH DAKOTA/GRAND FORKS ND
300 AM CST WED FEB 21 2018

 **SATELLITE DATA USED TO AUGMENT SKY COVER AT AUTOMATED STATIONS**
 *****  WEATHER ACROSS EASTERN NORTH DAKOTA  *****

CITY           SKY/WX    TMP DP  RH WIND       PRES   REMARKS
GRAND FORKS    FAIR       2  -6  69 W14       30.29R WCI -16
GRAND FRKS AFB NOT AVBL
GRAND FRKS NWS   N/A      1  -4  81 SW7       30.27R WCI -12
DEVILS LAKE    FAIR      -3  -9  75 W15       30.24R WCI -23
FARGO          FAIR       0  -7  72 SW12      30.36R WCI -17
WAHPETON ARPT  FAIR      -4  -9  77 W12       30.41R WCI -22
$$

 ***** WEATHER ACROSS CENTRAL AND WESTERN NORTH DAKOTA  *****

CITY           SKY/WX    TMP DP  RH WIND       PRES   REMARKS
BISMARCK       FAIR      -5 -13  68 SW8       30.34R WCI -20
MINOT          FAIR       0 -10  63 W13       30.23R WCI -18
JAMESTOWN      FAIR       1  -7  68 W8        30.29R WCI -13
MINOT AFB      FAIR      -2 -10  66 W14       30.22R WCI -21
GARRISON         N/A     -9 -15  75 SW6       30.25R WCI -22
WILLISTON      FAIR      -9 -16  71 S6        30.26R WCI -22
DICKINSON      FAIR      -6 -14  68 W9        30.21S WCI -23
HETTINGER      FAIR      -8 -15  71 W8        30.28R WCI -24
$$

 *****  OTHER AIRPORT OBSERVATIONS IN OUR AREA  *****

CITY           SKY/WX    TMP DP  RH WIND       PRES   REMARKS
WALHALLA       FAIR       3  -4  72 W16G22    30.20R WCI -16
GRAFTON AIRPOR FAIR       1  -4  78 W14       30.29R WCI -17
VALLEY CITY AR FAIR      -2  -9  71 W13       30.32S WCI -21
CANDO          FAIR      -4  -9  77 W13       30.25R WCI -23
CAVALIER APRT    N/A      1  -6  71 W7        30.24R WCI -11
GWINNER          N/A     -8 -13  77 SW12      30.38R WCI -27
SHEYENNE NWR     N/A    -10 -16  75 SW7       29.95S WCI -25
ROLLA          FAIR      -8 -13  77 SW9       30.18S WCI -25
 ***** THE ABOVE OBSERVATIONS ARE NON NWS ARE NOT QUALITY
       CONTROLLED AND MAY MIS-REPORT RAIN FOR SNOW...
$$

  *****  WEATHER ACROSS NORTHERN MINNESOTA  *****

CITY           SKY/WX    TMP DP  RH WIND       PRES   REMARKS
FLAG ISLAND    FAIR      -2  -8  78 SW12      30.17S WCI -20
WARROAD        FAIR      -2  -8  78 SW10      30.21S WCI -19
ROSEAU         FAIR       0  -6  78 SW12      30.21S WCI -18
HALLOCK        FAIR      -6 -11  77 SW9       30.25R WCI -22
THF RVR FALLS  FAIR      -4  -9  79 SW12      30.27R WCI -22
BAUDETTE       FAIR      -5  -9  83 S8        30.20S WCI -20
WASKISH        FAIR       0  -6  78 SW10      30.24S WCI -17
CROOKSTON      FAIR      -6 -11  77 SW10      30.32R WCI -23
STEPHEN NDAWN    N/A     -2  -9  71 S8          N/A  WCI -17
GREENBUSH NDAW   N/A     -2  -8  78 SW12        N/A  WCI -20
$$
  *****  WEATHER ACROSS CENTRAL AND WEST MINNESOTA  *****

CITY           SKY/WX    TMP DP  RH WIND       PRES   REMARKS
FOSSTON        FAIR     -11 -15  84 SW10      30.29S WCI -30
BEMIDJI        FAIR      -2  -6  82 SW7       30.26S WCI -15
PARK RAPIDS    FAIR      -8 -15  71 SW7       30.29R WCI -23
ELBOW LAKE     FAIR      -5  -9  82 SW9       30.40R WCI -22
WADENA         FAIR      -4  -9  77 SW7       30.34R WCI -18
DETROIT LAKES  FAIR       0  -6  78 SW5       30.33R WCI -10
MOORHEAD       FAIR      -2  -9  71 SW9       30.37S WCI -18
FERGUS FALLS   FAIR      -6 -11  77 SW3       30.41R
MORRIS MN      FAIR      -6 -11  77 W8        30.40R WCI -21
STAPLES        FAIR      -2  -8  78 SW5       30.35R WCI -12
$$
  *****  WEATHER ELSEWHERE ACROSS MINNESOTA  *****

CITY           SKY/WX    TMP DP  RH WIND       PRES   REMARKS
DULUTH         FAIR       1  -4  79 W13       30.27R WCI -17
INTRNTL FALLS  FAIR      -7 -10  87 SW5       30.23R WCI -18
ELY            FLURRIES   0  -4  85 SW6       30.24S WCI -12
CLOQUET        FAIR       0  -6  78 W9        30.31R WCI -16
WHEATON        FAIR      -2  -9  71 W7        30.44R WCI -16
BRAINERD       FAIR       0  -7  72 S5        30.35R WCI -10
HIBBING        FAIR     -12 -15  86 SW3       30.27R
ALEXANDRIA     FAIR       0  -6  76 W12       30.36R WCI -17
SAINT CLOUD    FAIR      -4  -7  87 SW8       30.41R WCI -19
MINNEAPOLIS    FAIR       6   1  80 CALM      30.45R
$$

  *****  WEATHER ACROSS SOUTH DAKOTA  *****

CITY           SKY/WX    TMP DP  RH WIND       PRES   REMARKS
SIOUX FALLS    FAIR      -2  -7  79 W6        30.48R WCI -14
BROOKINGS      FAIR      -5 -10  79 W6        30.43R WCI -18
WATERTOWN      FAIR      -9 -13  83 SW6       30.38R WCI -22
HURON          FAIR      -5 -10  79 SW7       30.48R WCI -19
SISSETON         N/A      0  -8  69 W14       30.40R WCI -19
ABERDEEN       FAIR     -13 -18  78 SW8       30.43R WCI -30
MITCHELL       FAIR      -1  -8  72 W12       30.51R WCI -18
PIERRE         FAIR      -5 -11  75 SW10      30.43  WCI -23
MOBRIDGE       FAIR      -8 -15  71 NW5       30.35R WCI -19
RAPID CITY     FAIR     -11 -15  82 CALM      30.28S
$$

  *****  SOME WEATHER IN NEARBY STATES *****

CITY           SKY/WX    TMP DP  RH WIND       PRES   REMARKS
GLASGOW MT     FAIR     -14 -17  87 N3        30.24S
GREAT FALLS MT CLOUDY    -4 -11  72 SW8       30.11S WCI -19
CHEYENNE WY    FAIR       3  -1  83 SW7       30.10F WCI  -9
SCOTTSBLUFF NE FAIR      -8 -12  83 E7        30.27S WCI -23
OMAHA NE       FAIR      10   4  76 N9        30.53R WCI  -3
DES MOINES IA  FAIR      14   8  77 N13       30.48R WCI   0
DAVENPORT IA   MOCLDY    23  16  74 NW15      30.40R WCI  10
CHICAGO IL     CLOUDY    31  25  78 NW12      30.27R WCI  22
EAU CLAIRE WI  FAIR       7   0  73 W6        30.41R WCI  -3
LA CROSSE WI   FAIR      14   7  73 NW13      30.44R WCI   0
$$

  *****  SOME NATIONAL WEATHER *****

CITY           SKY/WX    TMP DP  RH WIND       PRES   REMARKS
LA GUARDIA NY  FOG       50  48  93 S8        30.30S VSB<1/4
RALEIGH NC     CLOUDY    63  63 100 SW10      30.44S FOG
ATLANTA GA     LGT RAIN  66  65  96 S7        30.37R
NEW ORLEANS LA FAIR      72  72 100 SE6       30.19R
OKLAHOMA CITY  MOCLDY    23  18  81 N17G29    30.32F WCI   9
ALBUQUERQUE NM MOCLDY    33  17  51 NE7       30.11S
SALT LAKE CITY FAIR      17   4  56 S7        30.16F WCI   8
LOS ANGELES CA FAIR      46  28  49 E5        30.12F
BOISE ID       FAIR      23   5  46 SE9       30.15S WCI  13
SEATTLE WA     FAIR      28  23  81 N7        30.30R WCI  21
$$

*** WEATHER ACROSS MANITOBA...SASKATCHEWAN AND ONTARIO ***
                ***ONTARIO***

CITY           SKY/WX    TMP DP  RH WIND       PRES   REMARKS
GERALDTON      NOT AVBL
THUNDER BAY    NOT AVBL
SIOUX LOOKOUT  NOT AVBL
TORONTO        NOT AVBL
BIG TROUT LK   NOT AVBL
PICKLE LAKE    NOT AVBL
DRYDEN         NOT AVBL
KENORA         NOT AVBL
$$
                *** MANITOBA***

CITY           SKY/WX    TMP DP  RH WIND       PRES   REMARKS
BRANDON        NOT AVBL
DAUPHIN        NOT AVBL
ISLAND LAKE    NOT AVBL
PILOT MOUND    NOT AVBL
THE PAS        NOT AVBL
THOMPSON       NOT AVBL
WINNIPEG       NOT AVBL
$$
                ***SASKATCHEWAN***

CITY           SKY/WX    TMP DP  RH WIND       PRES   REMARKS
ESTEVAN        NOT AVBL
KINDERSLEY     NOT AVBL
LLOYDMINSTER   NOT AVBL
PRINCE ALBERT  NOT AVBL
REGINA         NOT AVBL
YORKTON        NOT AVBL
N. BATTLEFORD  NOT AVBL
LA RONGE       NOT AVBL
SASKATOON      NOT AVBL
SWIFT CURRENT  NOT AVBL
$$
NOTE: THESE ARE AUTOMATED STATIONS WITH LIMITED QUALITY CONTROL
      "FAIR" INDICATES FEW OR NO CLOUDS BELOW 12,000 FEET WITH NO
      SIGNIFICANT WEATHER AND/OR OBSTRUCTIONS TO VISIBILITY.
      SKY/WX - SKY CONDITION AND SIGNIFICANT WEATHER.
      TMP - AIR TEMPERATURE.    DP   - DEWPOINT TEMPERATURE.
      RH  - RELATIVE HUMIDITY.  PRES - PRESSURE.
      HX  - HEAT INDEX.         WCI  - WIND CHILL INDEX.
$




USA.gov is the U.S. government's official web portal to all federal, state and local government web resources and services.